Starlink 31372

operational
NORAD ID: 58939 Int'l Des: 2024-027 Owner: SPXS Country: US Constellation: starlink
LEOCIRCULAR

Über Starlink 31372

Beschreibung wird geladen...

Live-Position

3D-Globus wird geladen...

Nächste Überflüge

Höhenverlauf

Altitude vs Time

uPlot chart will show altitude changes over time

Zweizeiliger Elementsatz

1 58939U 24027J 25353.21052429 .00000722 00000-0 36501-4 0 9992
2 58939 53.1626 323.6494 0001252 87.7330 272.3814 15.30196825105001
Epoch: 19. Dez. 2025 • Age: 23 hours

Aktueller Status

Höhe 477.1 km
Geschwindigkeit 7.63 km/s
Subsatellitenpunkt -5.54°S, 157.9°E
Startdatum 10. Feb. 2024
Alter 1.8 years
Typ internet

Technische Details

Klassifizierung Payload
Masse 730.00 kg
Trockenmasse 700.00 kg
Gesamtmasse 730.00 kg
Länge 0.30 m
Durchmesser 4.10 m
Spannweite 29.00 m
Form Box + pan
Hersteller SPXS
Bus-Typ Starlink V2M
Phasenstatus In Orbit
Besitzer/Staat SPXS/US

Große Konstellationen

Loading constellations...